67P/Churyumov-Gerasimenko (2021)

Japanese version
Home page
Updated on October 6, 2021

---------------------------------------------------------------------

* Profile

* Pictures

* Orbital Elements

Epoch 2021 July 5.0 TT = JDT 2459400.5
T 2021 Nov. 2.05269 TT                                  Rudenko
q   1.2106444            (2000.0)            P               Q
n   0.15333187     Peri.   22.12464     +0.52361082     -0.85101790
a   3.4571198      Node    36.33482     +0.77119296     +0.45349557
e   0.6498113      Incl.    3.87129     +0.36206784     +0.26478350
P   6.43
From 6815 observations 1995 July 3-2021 June 27, mean residual 0".7.
     Nongravitational parameters A1 = +0.07, A2 = +0.0105.

* Finding Charts

* Magnitudes Graph

        m1 = 9.5 + 5 log d + 14.0 log r(t - 40)

---------------------------------------------------------------------

The orbital elements are published on M.P.E.C. 2021-N06.
The charts are made with StellaNavigator Ver.10 (AstroArts).
The magnitudes graphs are made with Comet for Windows.

---------------------------------------------------------------------

Copyright(C) Seiichi Yoshida (comet@aerith.net). All rights reserved.